Date String (YYYY-MM-DD hh:mm:ss) UTC,Instrument flags,absolute air pressure of the measurement (hPa),sample flow rate (lpm),inlet stack bypass flow (lpm),air temperature of the measurement (°C),ambient temperature measured by the external sensor (°C),aerosol sample conditioner tube jacket temperature (°C),OPC LED temperature (°C),internal box temperature (°C),relative humidity of the measurement (%),span deviation,mass concentration of particles derived from Lorenz-Mie calculation of OPC scattering (μg/m³),mass concentration of particles derived from Lorenz-Mie calculation of OPC scattering (μg/m³),mass concentration of particles derived from Lorenz-Mie calculation of OPC scattering (μg/m³)
DateTimeUTC,F1_M11,P_M11,Q1_M11,Q2_M11,T1_M11,T2_M11,T3_M11,T4_M11,T5_M11,U1_M11,ZSPAN_M11,X2_M11,X0_M11,X1_M11
2023-10-05 11:00:00,SystemResetWarning,0835.8,5.00,000.00,029.1,027.6,000.0,037.5,030.7,14.0,0000.0,0002.32,0006.43,0001.72
2023-10-05 11:01:00,SystemResetWarning,0835.8,5.00,000.00,029.1,027.6,000.0,037.5,030.7,13.9,0000.0,0002.31,0007.55,0001.75
2023-10-05 11:02:00,SystemResetWarning,0835.8,5.00,000.00,029.1,027.6,000.0,037.5,030.7,13.9,0000.0,0002.35,0007.60,0001.78
2023-10-05 11:03:00,SystemResetWarning,0835.8,5.00,000.00,029.1,027.6,000.0,037.5,030.7,13.9,0000.0,0002.43,0007.11,0001.82
2023-10-05 11:04:00,SystemResetWarning,0835.8,5.00,000.00,029.1,027.6,000.0,037.5,030.7,13.9,0000.0,0002.50,0006.86,0001.86
2023-10-05 11:05:00,SystemResetWarning,0835.8,5.01,000.00,029.1,027.6,000.0,037.5,030.7,13.9,0000.0,0002.61,0006.90,0001.91
2023-10-05 11:06:00,SystemResetWarning,0835.7,5.00,000.00,029.1,027.6,000.0,037.5,030.7,13.9,0000.0,0002.62,0006.93,0001.95
2023-10-05 11:07:00,SystemResetWarning,0835.7,5.00,000.00,029.1,027.6,000.0,037.5,030.8,13.9,0000.0,0002.73,0007.22,0002.01
2023-10-05 11:08:00,SystemResetWarning,0835.7,4.99,000.00,029.1,027.6,000.0,037.5,030.7,13.9,0000.0,0002.80,0007.78,0002.07
2023-10-05 11:09:00,SystemResetWarning,0835.7,4.99,000.00,029.1,027.6,000.0,037.5,030.7,13.8,0000.0,0002.89,0008.16,0002.13
2023-10-05 11:10:00,SystemResetWarning,0835.8,4.99,000.00,029.1,027.6,000.0,037.5,030.7,13.8,0000.0,0002.93,0008.16,0002.17
2023-10-05 11:11:00,SystemResetWarning,0835.8,5.00,000.00,029.1,027.6,000.0,037.5,030.7,13.8,0000.0,0002.94,0007.94,0002.20
2023-10-05 11:12:00,SystemResetWarning,0835.8,5.01,000.00,029.1,027.6,000.0,037.5,030.7,13.8,0000.0,0003.02,0007.57,0002.24
2023-10-05 11:13:00,SystemResetWarning,0835.8,5.01,000.00,029.1,027.6,000.0,037.6,030.7,13.7,0000.0,0003.07,0007.64,0002.27
2023-10-05 11:14:00,SystemResetWarning,0835.8,5.00,000.00,029.1,027.6,000.0,037.6,030.7,13.6,0000.0,0003.11,0007.75,0002.31
2023-10-05 11:15:00,SystemResetWarning,0835.8,5.00,000.00,029.1,027.6,000.0,037.5,030.7,13.7,0000.0,0003.13,0007.89,0002.35
2023-10-05 11:16:00,SystemResetWarning,0835.8,5.01,000.00,029.1,027.5,000.0,037.5,030.7,13.6,0000.0,0003.16,0008.44,0002.41
2023-10-05 11:17:00,SystemResetWarning,0835.8,4.99,000.00,029.1,027.5,000.0,037.5,030.7,13.7,0000.0,0003.22,0008.92,0002.48
2023-10-05 11:18:00,SystemResetWarning,0835.9,4.99,000.00,029.1,027.5,000.0,037.5,030.7,13.7,0000.0,0003.24,0009.10,0002.53
2023-10-05 11:19:00,SystemResetWarning,0835.9,5.00,000.00,029.1,027.5,000.0,037.5,030.7,13.7,0000.0,0003.28,0009.02,0002.58
2023-10-05 11:20:00,SystemResetWarning,0835.9,5.01,000.00,029.1,027.5,000.0,037.5,030.7,13.7,0000.0,0003.36,0009.82,0002.64
2023-10-05 11:21:00,SystemResetWarning,0835.9,5.00,000.00,029.1,027.5,000.0,037.5,030.7,13.8,0000.0,0003.43,0011.29,0002.73
2023-10-05 11:22:00,SystemResetWarning,0835.9,5.01,000.00,029.1,027.5,000.0,037.5,030.7,13.7,0000.0,0003.45,0011.34,0002.77
2023-10-05 11:23:00,SystemResetWarning,0835.9,5.00,000.00,029.1,027.5,000.0,037.5,030.7,13.7,0000.0,0003.45,0010.94,0002.77
2023-10-05 11:24:00,SystemResetWarning,0835.9,5.01,000.00,029.1,027.4,000.0,037.5,030.6,13.7,0000.0,0003.48,0010.96,0002.80
2023-10-05 11:25:00,SystemResetWarning,0835.9,5.00,000.00,029.0,027.4,000.0,037.5,030.6,13.7,0000.0,0003.57,0011.83,0002.88
2023-10-05 11:26:00,SystemResetWarning,0836.0,5.00,000.00,029.0,027.4,000.0,037.5,030.6,13.6,0000.0,0003.67,0012.26,0002.95
2023-10-05 11:27:00,SystemResetWarning,0836.0,5.00,000.00,029.0,027.4,000.0,037.5,030.6,13.6,0000.0,0003.69,0011.78,0002.97
2023-10-05 11:28:00,SystemResetWarning,0836.0,5.00,000.00,029.0,027.4,000.0,037.5,030.6,13.6,0000.0,0003.69,0011.49,0002.98
2023-10-05 11:29:00,SystemResetWarning,0836.1,5.00,000.00,029.0,027.4,000.0,037.5,030.6,13.5,0000.0,0003.73,0011.84,0003.01
2023-10-05 11:30:00,SystemResetWarning,0836.1,5.00,000.00,029.0,027.4,000.0,037.5,030.6,13.5,0000.0,0003.80,0012.79,0003.07
2023-10-05 11:31:00,SystemResetWarning,0836.1,5.01,000.00,029.0,027.4,000.0,037.5,030.6,13.5,0000.0,0003.85,0013.04,0003.11
2023-10-05 11:32:00,SystemResetWarning,0836.1,5.00,000.00,029.0,027.4,000.0,037.5,030.6,13.5,0000.0,0003.88,0012.01,0003.13
2023-10-05 11:33:00,SystemResetWarning,0836.1,5.00,000.00,029.0,027.4,000.0,037.5,030.6,13.4,0000.0,0003.96,0012.19,0003.18
2023-10-05 11:34:00,SystemResetWarning,0836.1,5.00,000.00,029.0,027.4,000.0,037.5,030.6,13.4,0000.0,0004.04,0012.86,0003.24
2023-10-05 11:35:00,SystemResetWarning,0836.1,4.99,000.00,029.0,027.4,000.0,037.5,030.6,13.4,0000.0,0004.11,0013.63,0003.29
2023-10-05 11:36:00,SystemResetWarning,0836.1,5.00,000.00,029.0,027.4,000.0,037.5,030.6,13.4,0000.0,0004.11,0013.22,0003.31
2023-10-05 11:37:00,SystemResetWarning,0836.1,4.99,000.00,029.0,027.4,000.0,037.5,030.6,13.4,0000.0,0004.10,0012.68,0003.31
2023-10-05 11:38:00,SystemResetWarning,0836.1,5.00,000.00,029.0,027.4,000.0,037.5,030.6,13.3,0000.0,0004.14,0012.86,0003.32
2023-10-05 11:39:00,SystemResetWarning,0836.1,5.00,000.00,029.0,027.4,000.0,037.5,030.6,13.3,0000.0,0004.16,0012.90,0003.34
2023-10-05 11:40:00,SystemResetWarning,0836.1,5.01,000.00,029.0,027.4,000.0,037.5,030.6,13.3,0000.0,0004.16,0013.00,0003.33
2023-10-05 11:41:00,SystemResetWarning,0836.1,5.00,000.00,029.0,027.4,000.0,037.5,030.6,13.3,0000.0,0004.10,0012.50,0003.31
2023-10-05 11:42:00,SystemResetWarning,0836.1,5.00,000.00,029.0,027.4,000.0,037.5,030.6,13.3,0000.0,0004.07,0011.91,0003.29
2023-10-05 11:43:00,SystemResetWarning,0836.1,5.00,000.00,029.0,027.5,000.0,037.5,030.6,13.3,0000.0,0004.06,0011.81,0003.28
2023-10-05 11:44:00,SystemResetWarning,0836.1,5.00,000.00,029.0,027.4,000.0,037.5,030.6,13.3,0000.0,0004.03,0011.60,0003.26
2023-10-05 11:45:00,SystemResetWarning,0836.1,5.00,000.00,029.0,027.5,000.0,037.5,030.6,13.3,0000.0,0004.05,0011.69,0003.24
2023-10-05 11:46:00,SystemResetWarning,0836.1,5.00,000.00,029.0,027.5,000.0,037.5,030.6,13.3,0000.0,0004.01,0011.26,0003.20
2023-10-05 11:47:00,SystemResetWarning,0836.2,5.00,000.00,029.0,027.5,000.0,037.5,030.6,13.3,0000.0,0003.97,0010.80,0003.17
2023-10-05 11:48:00,SystemResetWarning,0836.2,5.00,000.00,029.0,027.5,000.0,037.5,030.6,13.3,0000.0,0003.95,0010.86,0003.14
2023-10-05 11:49:00,SystemResetWarning,0836.2,5.00,000.00,029.0,027.5,000.0,037.5,030.6,13.3,0000.0,0003.95,0011.36,0003.12
2023-10-05 11:50:00,SystemResetWarning,0836.2,5.00,000.00,029.0,027.5,000.0,037.5,030.6,13.3,0000.0,0003.94,0011.40,0003.11
2023-10-05 11:51:00,SystemResetWarning,0836.2,5.00,000.00,029.0,027.5,000.0,037.4,030.6,13.3,0000.0,0003.91,0011.18,0003.09
2023-10-05 11:52:00,SystemResetWarning,0836.2,5.00,000.00,029.0,027.5,000.0,037.4,030.7,13.3,0000.0,0003.85,0011.16,0003.05
2023-10-05 11:53:00,SystemResetWarning,0836.3,4.99,000.00,029.0,027.5,000.0,037.4,030.6,13.3,0000.0,0003.81,0011.15,0003.00
2023-10-05 11:54:00,SystemResetWarning,0836.2,5.00,000.00,029.0,027.5,000.0,037.4,030.6,13.3,0000.0,0003.74,0010.99,0002.95
2023-10-05 11:55:00,SystemResetWarning,0836.3,5.01,000.00,029.0,027.5,000.0,037.4,030.7,13.3,0000.0,0003.72,0010.86,0002.89
2023-10-05 11:56:00,SystemResetWarning,0836.3,5.01,000.00,029.0,027.5,000.0,037.4,030.6,13.3,0000.0,0003.63,0010.37,0002.84
2023-10-05 11:57:00,SystemResetWarning,0836.2,5.00,000.00,029.0,027.5,000.0,037.4,030.7,13.3,0000.0,0003.55,0010.29,0002.81
2023-10-05 11:58:00,SystemResetWarning,0836.3,5.00,000.00,029.0,027.5,000.0,037.4,030.7,13.3,0000.0,0003.55,0010.24,0002.81
2023-10-05 11:59:00,SystemResetWarning,0836.3,5.00,000.00,029.0,027.5,000.0,037.4,030.7,13.3,0000.0,0003.55,0010.31,0002.83
